Overview Statistics Trail Chart Weather Telemetry Raw packets
 

This is the latest recevied weather packets stored in our database for station/object WW5JC. If no packets are shown the sender has not sent any weather packets the latest 10 day(s).

<< 37 38 39 40 41 42 43 >>
Time Temp. Humidity Pressure Rain* Wind** Luminosity Snow
1788373534 34.44° C 51% 1017.3 hPa 0 mm - 678 W/m² -
1788373230 34.44° C 53% 1017.3 hPa 0 mm - 679 W/m² -
1788372926 34.44° C 52% 1017.4 hPa 0 mm - 694 W/m² -
1788372620 34.44° C 52% 1017.5 hPa 0 mm - 678 W/m² -
1788372314 33.89° C 53% 1017.7 hPa 0 mm - 678 W/m² -
1788372010 33.89° C 52% 1017.7 hPa 0 mm - 686 W/m² -
1788371710 33.89° C 53% 1017.7 hPa 0 mm - 673 W/m² -
1788371406 33.89° C 53% 1017.8 hPa 0 mm - 667 W/m² -
1788371103 33.89° C 55% 1018 hPa 0 mm - 678 W/m² -
1788370798 33.89° C 54% 1018 hPa 0 mm - 665 W/m² -
1788370497 33.33° C 56% 1018 hPa 0 mm - 673 W/m² -
1788370192 33.89° C 54% 1018.3 hPa 0 mm - 649 W/m² -
1788369891 33.89° C 56% 1018.3 hPa 0 mm - 648 W/m² -
1788369587 33.33° C 56% 1018.4 hPa 0 mm - 646 W/m² -
1788369282 32.78° C 59% 1018.5 hPa 0 mm - 642 W/m² -
1788368978 33.89° C 57% 1018.6 hPa 0 mm - 633 W/m² -
1788368673 33.33° C 58% 1018.4 hPa 0 mm - 640 W/m² -
1788368369 32.78° C 59% 1018.9 hPa 0 mm - 644 W/m² -
1788368068 32.78° C 59% 1018.7 hPa 0 mm - 605 W/m² -
1788367768 32.78° C 59% 1018.9 hPa 0 mm - 609 W/m² -
1788367463 32.78° C 60% 1018.7 hPa 0 mm - 590 W/m² -
1788367162 32.22° C 60% 1019.1 hPa 0 mm - 583 W/m² -
1788366858 32.22° C 61% 1019 hPa 0 mm - 574 W/m² -
1788366555 32.22° C 61% 1019 hPa 0 mm - 564 W/m² -
1788366251 32.22° C 61% 1019.2 hPa 0 mm - 557 W/m² -

* Rain latest hour (hover to see other rain measurements)
** Current wind speed in m/s (hover to see current wind gust speed)